Flag for Martinique Weather past 2 weeks in Fort-de-France, Martinique

Now
88 °F

Partly sunny.


Feels Like: 96 °F
Forecast: 78 / 87 °F
Wind: 15 mph from East

Location: Le Lamentin Airport

Current Time: Oct 1, 2014 at 1:27:14 PM

Latest Report: Oct 1, 2014 at 1:00 PM


Visibility: N/A

Pressure: 29.98 "Hg

Humidity: 62%

Dew point: 73 °F

Location of Fort-de-FranceLocation

Historic Weather in Fort-de-France — Graph

°F

Fort-de-France temperature yesterday

Maximum temperature yesterday: 90 °F (at 11:00 AM)
Minimum temperature yesterday: 77 °F (at 3:00 AM)
Average temperature yesterday: 83 °F

Past Weeks' High & Low Weather Summary

 TemperatureHumidityPressure
High91 °F (Sep 26, 2:00 PM)100% (Sep 17, 4:30 AM)30.04 "Hg (Sep 17, 4:30 AM)
Low72 °F (Sep 28, 5:30 AM)52% (Sep 27, 12:30 PM)29.83 "Hg (Sep 25, 3:00 PM)
Average81 °F84%29.93 "Hg
* Reported Sep 16 12:00 Noon — Oct 1 12:30 PM, Fort-de-France, Weather by CustomWeather, © 2014

Note: Actual official high and low records may vary slightly from our data, if they occured in-between our weather recording intervals... More about our weather records

Advertising

Fort-de-France weather history for previous 24 hours

 ConditionsComfort  
Time TempWeatherWind HumidityBarometerVisibility
12:30 PM
Oct 1
90 °FBroken clouds.16 mph59%29.98 "HgN/A
12:00 PM90 °FScattered clouds.16 mph59%29.98 "HgN/A
11:30 AM90 °FBroken clouds.16 mph63%30.01 "HgN/A
11:00 AM88 °FPartly sunny.16 mph66%30.01 "HgN/A
10:30 AM90 °FPassing clouds.15 mph63%30.01 "HgN/A
10:00 AM88 °FPassing clouds.13 mph62%30.01 "HgN/A
9:30 AM88 °FScattered clouds.15 mph62%30.04 "HgN/A
9:00 AM86 °FBroken clouds.15 mph70%30.01 "HgN/A
8:30 AM86 °FPassing clouds.14 mph66%30.01 "HgN/A
8:00 AM84 °FClear.13 mph74%30.01 "HgN/A
7:30 AM82 °FPassing clouds.8 mph84%30.01 "HgN/A
7:00 AM79 °FPassing clouds.1 mph89%29.98 "HgN/A
6:30 AM77 °FPassing clouds.3 mph94%29.98 "HgN/A
6:00 AM77 °FPassing clouds.No wind94%29.98 "HgN/A
5:30 AM79 °FPartly cloudy.2 mph89%29.95 "HgN/A
5:00 AM77 °FRain. Passing clouds.2 mph94%29.95 "HgN/A
4:30 AM77 °FPassing clouds.3 mph89%29.95 "HgN/A
4:00 AM77 °FPassing clouds.No wind94%29.95 "HgN/A
3:30 AM79 °FPassing clouds.3 mph89%29.95 "HgN/A
3:00 AM79 °FPassing clouds.2 mph89%29.95 "HgN/A
2:30 AM79 °FPassing clouds.3 mph89%29.95 "HgN/A
2:00 AM79 °FPassing clouds.5 mph89%29.95 "HgN/A
1:30 AM79 °FPassing clouds.2 mph89%29.98 "HgN/A
1:00 AM79 °FPassing clouds.3 mph89%29.98 "HgN/A
12:30 AM79 °FPartly cloudy.2 mph89%29.98 "HgN/A
12:00 AM79 °FPassing clouds.3 mph89%29.98 "HgN/A
11:30 PM
Sep 30
79 °FClear.3 mph89%30.01 "HgN/A
11:00 PM81 °FPassing clouds.5 mph84%30.01 "HgN/A
10:30 PM79 °FPassing clouds.3 mph89%30.01 "HgN/A
10:00 PM79 °FPassing clouds.3 mph89%30.01 "HgN/A
9:30 PM79 °FClear.6 mph89%30.01 "HgN/A
9:00 PM81 °FClear.3 mph84%29.98 "HgN/A
8:30 PM81 °FWarm.6 mph84%29.98 "HgN/A
8:00 PM81 °FClear.5 mph84%29.98 "HgN/A
7:30 PM81 °FClear.6 mph84%29.98 "HgN/A
7:00 PM82 °FClear.6 mph79%29.98 "HgN/A
6:30 PM82 °FClear.6 mph79%29.95 "HgN/A
6:00 PM82 °FClear.9 mph79%29.95 "HgN/A
5:30 PM84 °FPassing clouds.9 mph74%29.95 "HgN/A
5:00 PM86 °FPassing clouds.12 mph70%29.95 "HgN/A
4:30 PM88 °FClear.12 mph66%29.92 "HgN/A
4:00 PM88 °FScattered clouds.14 mph66%29.92 "HgN/A
3:30 PM90 °FPassing clouds.12 mph63%29.92 "HgN/A
3:00 PM90 °FPassing clouds.14 mph59%29.92 "HgN/A
2:30 PM88 °FScattered clouds.14 mph62%29.92 "HgN/A
2:00 PM90 °FBroken clouds.13 mph63%29.92 "HgN/A
1:30 PM90 °FPartly sunny.13 mph59%29.95 "HgN/A
1:00 PM90 °FPartly sunny.14 mph63%29.95 "HgN/A
Weather by CustomWeather, © 2014

See weather overviewHow to use our weather pages